Regional Weather Roundup
Issued by NWS

Home | Current Version | Previous Version | Text Only | Print | Product List | Glossary On
Versions: 1 2 3 4 5 6 7 8 9 10 11 12 13 14 15 16 17 18 19 20 21 22 23 24 25 26 27 28 29 30 31 32 33 34 35 36 37 38 39 40 41 42 43 44 45 46 47 48 49 50
000
ASUS43 KTOP 111359
RWRKS

WEATHER ROUNDUP FOR KANSAS
NATIONAL WEATHER SERVICE GOODLAND KS
900 AM CDT FRI JUL 11 2014

NOTE:  "FAIR" INDICATES FEW OR NO CLOUDS BELOW 12,000 FEET WITH NO
SIGNIFICANT WEATHER AND/OR OBSTRUCTIONS TO VISIBILITY.

KSZ001>006-013>018-027>032-041>047-111500-
NORTHWEST KANSAS

CITY           SKY/WX    TMP DP  RH WIND       PRES   REMARKS
GOODLAND       SUNNY     74  56  53 SW3       30.02R
HAYS           MOSUNNY  N/A N/A N/A SW14      29.97S
HILL CITY      MOSUNNY   77  65  66 N5        29.99R
RUSSELL        MOSUNNY   76  64  66 S13       29.96R
$$

KSZ061>065-074>080-084>089-111500-
SOUTHWEST KANSAS

CITY           SKY/WX    TMP DP  RH WIND       PRES   REMARKS
DODGE CITY     SUNNY     77  55  46 SW14      30.03R
ELKHART          N/A     80  54  40 SW15        N/A
GARDEN CITY    SUNNY     77  58  51 SW13      30.01S
GREAT BEND     SUNNY     77  61  57 SW14      29.97S
LIBERAL        SUNNY     79  55  44 SW16      30.07R
$$

KSZ066>073-081>083-090>101-111500-
SOUTHEAST KANSAS

CITY           SKY/WX    TMP DP  RH WIND       PRES   REMARKS
CHANUTE        SUNNY     77  68  73 S15       30.07R
COFFEYVILLE    SUNNY     77  70  79 S13       30.07S
HUTCHINSON     SUNNY     77  66  68 S14       30.01R
MEDICINE LODGE   N/A     76  65  68 S8        30.01S
NEWTON         SUNNY     75  64  69 S17       30.05S
PARSONS        SUNNY     76  69  79 S10       30.09R
WICHITA INTL   MOSUNNY   76  67  73 S13       30.02S
WICHITA JABRA  SUNNY     75  68  78 S14       30.03R
WINFIELD       SUNNY     78  70  76 S13       30.06R
$$

KSZ007>012-019>026-033>040-048>060-102>105-111500-
NORTHEAST KANSAS

CITY           SKY/WX    TMP DP  RH WIND       PRES   REMARKS
CONCORDIA      PTSUNNY   73  68  84 S6        30.00S
EMPORIA        SUNNY     74  68  81 S13       30.03S
LAWRENCE       SUNNY     77  67  71 S9        30.04R
MANHATTAN      SUNNY     79  67  66 S7        29.99S
OLATHE IND     MOSUNNY   74  67  78 S14       30.06S
OLATHE EXE     SUNNY     74  68  81 S13       30.05S
SALINA         SUNNY     79  66  64 S14       29.97R
TOPEKA BILLARD SUNNY     76  68  76 S9        30.03R
TOPEKA FORBES  SUNNY     77  68  73 S14       30.03R
$$


USA.gov is the U.S. government's official web portal to all federal, state and local government web resources and services.